User: anonymous   Login
Location: Chequamegon National Forest
(46.1070°N, 90.8420°W)
Time: 14:10:50
(UTC-05:00)
Language:

ISS - Orbit

View from above orbital plane
View from above orbital plane
View from above satellite
View from above satellite

Ground track
Ground track

The orbit data is extracted from the following two-line orbital elements,

1 25544U 98067A   15215.45697313  .00005874  00000-0  93015-4 0  9998
2 25544 051.6434 208.0041 0001264 037.6424 109.7848 15.54983396955390
Epoch (UTC): 03 August 2015 10:58:02
Eccentricity: 0.0001264
inclination: 51.6434°
perigee height: 401 km
apogee height: 403 km
right ascension of ascending node: 208.0041°
argument of perigee: 37.6424°
revolutions per day: 15.54983396
mean anomaly at epoch: 109.7848°
orbit number at epoch: 95539

The dashed part of the orbit path shows where the satellite is in the earth's shadow,  

DLR